Regional Weather Roundup
Issued by NWS Midland/Odessa, TX

Skip options and go directly to product.
Home | Oldest Version | Previous Version | Current Version | All | Graphics & Text | Save Text | Print | Product List | Glossary On

Skip product version selection by date and time.   
864
ASUS44 KMAF 070401
RWRMAF
MIDLAND AREA WEATHER ROUNDUP
NATIONAL WEATHER SERVICE MIDLAND TX
1000 PM CST SAT FEB 06 2016

...IN SOUTHWEST TEXAS AND SOUTHEAST NEW MEXICO...

CITY           SKY/WX    TMP DP  RH WIND       PRES   REMARKS
ALPINE         CLOUDY    43   6  21 S10       30.39S WCI  37
ANDREWS        FAIR      43  10  25 S10       30.25S WCI  37
ARTESIA        CLOUDY    43   9  24 W12       30.24R WCI  37
BIG SPRING     CLOUDY    39  16  39 SE9       30.29F WCI  32
CARLSBAD       CLOUDY    46   7  20 CALM      30.22S
DRYDEN           N/A     47  10  22 S7        30.32R
FORT STOCKTON  CLOUDY    48  15  26 S12       30.28F
GUAD PASS      CLOUDY    40   2  20 SW21      30.32R WCI  30
HOBBS          CLEAR     32   5  32 S8        30.25R WCI  25
MARFA          CLOUDY    23   3  42 CALM      30.36F
MIDLAND AIRPK  CLOUDY    47  12  24 S8        30.27S
MIDLAND INTL   CLEAR     40  14  34 S7        30.25F WCI  35
ODESSA         CLOUDY    43  12  28 S7        30.26F WCI  39
PECOS          CLOUDY    41  10  27 SW8       30.27S WCI  36
PRESIDIO       FAIR      46   9  21 N8        30.33F
SEMINOLE       CLEAR     37  10  34 S5        30.25F WCI  33
SNYDER           N/A     42  18  37 SE12      30.27F WCI  35
WINK           CLOUDY    38  12  34 S9        30.25S WCI  31
$$
...OTHER STATIONS IN TEXAS...

CITY           SKY/WX    TMP DP  RH WIND       PRES   REMARKS
ABILENE        CLEAR     37  19  48 SE9       30.30F WCI  30
AMARILLO       CLOUDY    38  13  35 S10       30.21F WCI  31
AUSTIN         CLEAR     35  30  82 CALM      30.38S
BROWNSVILLE    CLEAR     48  34  58 CALM      30.38S
CORPUS CHRISTI PTCLDY    52  23  32 N6        30.37S
DALLAS FTW     CLEAR     40  32  73 S8        30.33F WCI  34
DEL RIO        CLEAR     48  20  32 CALM      30.34S
EL PASO        MOCLDY    44   8  23 SW7       30.32S
HOUSTON INT    PTCLDY    46  37  71 NW6       30.38S
LUBBOCK        CLOUDY    41  13  31 S12       30.22F WCI  34
SAN ANGELO     CLEAR     37  19  48 S7        30.30F WCI  32
SAN ANTONIO    PTCLDY    43  25  49 W5        30.37R
WACO           CLEAR     36  31  82 CALM      30.38R
WICHITA FALLS  NOT AVBL
$$
...OTHER LOCATIONS IN NEW MEXICO...

CITY           SKY/WX    TMP DP  RH WIND       PRES   REMARKS
ALAMAGORDO     CLEAR     36   1  23 NE7       30.33R WCI  30
ALBUQUERQUE    CLEAR     40  13  33 N9        30.37R WCI  34
CANNON AFB     CLOUDY    39   6  24 W7        30.19F WCI  34
CLOVIS         CLOUDY    32   9  37 W9        30.21S WCI  24
HOLLOMAN AFB   CLEAR     32   2  29 S2        30.32R
ROSWELL        CLOUDY    37  12  35 CALM      30.22R
RUIDOSO          N/A     37   1  22 NW13G18   30.32S WCI  29
SANTA FE       CLOUDY    28  16  60 W8        30.32S WCI  20
TRUTH OR CONSE CLEAR     35   0  22 NW8       30.34R WCI  29
TUCUMCARI      CLOUDY    30  12  47 SW9       30.15R WCI  22
$$

USA.gov is the U.S. government's official web portal to all federal, state and local government web resources and services.